Regional Weather Roundup
Issued by NWS

Home | Current Version | Previous Version | Text Only | Print | Product List | Glossary On
Versions: 1 2 3 4 5 6 7 8 9 10 11 12 13 14 15 16 17 18 19 20 21 22 23 24 25 26 27 28 29 30 31 32 33 34 35 36 37 38 39 40 41 42 43 44 45 46 47 48 49 50
000
ASUS44 KJAN 230410
RWRMS

MISSISSIPPI HOURLY WEATHER ROUNDUP
NATIONAL WEATHER SERVICE JACKSON MS
1100 PM CDT FRI AUG 22 2014

NOTE: "FAIR: INDICATES FEW OR NO CLOUDS BELOW 12,000 FEET WITH NO
SIGNIFICANT WEATHER AND/OR OBSTRUCTIONS TO VISIBILITY.

MSZ001>002-007>008-010>013-018>021-025>028-034>036-230500-
NORTHWEST MISSISSIPPI

CITY           SKY/WX    TMP DP  RH WIND       PRES   REMARKS
CLARKSDALE     FAIR      77  77 100 CALM      30.02R
CLEVELAND      FAIR      78  74  89 S5        30.01R
GREENWOOD      CLEAR     75  72  90 CALM      30.02R
GREENVILLE     CLEAR     76  71  85 S3        30.00S
GRENADA        FAIR      73  72  94 CALM      30.03R
OLIVE BRANCH   CLEAR     79  79 100 S6        30.02R
OXFORD         FAIR      79  72  78 CALM      30.04S
TUNICA         CLEAR     79  73  83 SW3       30.01S
$$

MSZ003>006-009-014>017-022>024-029>033-037>039-230500-
NORTHEAST MISSISSIPPI

CITY           SKY/WX    TMP DP  RH WIND       PRES   REMARKS
BELMONT        FAIR      76  74  94 CALM      30.04R
COLUMBUS AFB   CLEAR     77  73  86 CALM      30.03R
CORINTH        FAIR      77  72  83 CALM      30.02S
GOLDN TRIANGLE CLEAR     79  70  73 NW3       30.03S
STARKVILLE     FAIR      73  70  88 CALM      30.03R
TUPELO         CLEAR     81  74  79 CALM      30.02S
$$

MSZ040-058-230500-
CENTRAL MISSISSIPPI

CITY           SKY/WX    TMP DP  RH WIND       PRES   REMARKS
JACKSON INTL   CLEAR     77  74  90 CALM      30.03S
JACKSON HAWKNS CLEAR     80  72  76 CALM      30.03F
MERIDIAN KEY   CLEAR     77  73  87 S3        30.03S
MERIDIAN NAS   CLEAR     82  73  74 W3        30.03R
RAYMOND        FAIR      75  70  83 CALM      30.03S HAZE
VICKSBURG      CLEAR     75  72  90 CALM      30.02S
$$

MSZ059>079-230500-
SOUTH MISSISSIPPI

CITY           SKY/WX    TMP DP  RH WIND       PRES   REMARKS
BROOKHAVEN     FAIR      75  75 100 CALM      30.06S
COLUMBIA       FAIR      77  77 100 MISG      30.02S
HATTIESBURG    HAZE      81  76  84 CALM      30.03S VSB 3/4
MCCOMB         CLEAR     78  74  87 CALM      30.04S
NATCHEZ        CLEAR     79  75  89 CALM      30.04F
PINE BELT      CLEAR     79  72  78 CALM      30.05S
$$

MSZ080>082-230500-
COASTAL MISSISSIPPI

CITY           SKY/WX    TMP DP  RH WIND       PRES   REMARKS
BILOXI         CLEAR     85  76  74 W5        30.02S HX  94
PASCAGOULA     CLEAR     77  76  96 CALM      30.02S FOG
GULFPORT       CLEAR     82  75  79 CALM      30.02S
$$


USA.gov is the U.S. government's official web portal to all federal, state and local government web resources and services.